Location: Consuma
(43.7833°N, 11.5833°E)
Time: 04:46:11
(UTC+00:00)

Daily predictions for brighter satellites

Satellite Brightness Start Highest point End
(mag) Time Altitude Azimuth Time Altitude Azimuth Time Altitude Azimuth
Cosmos 2237 Rocket 4.5 02:21:12 18° NE 02:21:12 18° NE 02:22:41 10° NNE
NOSS 3-1 (C) 4.2 02:49:15 71° NE 02:49:25 71° NE 02:58:01 10° SE
Lacrosse 5 3.8 02:59:21 25° NE 02:59:21 25° NE 03:02:43 10° ENE
SL-16 R/B 3.3 02:59:40 42° E 02:59:40 42° E 03:04:19 10° NE
CZ-2C R/B 3.6 03:04:09 10° NNE 03:08:22 42° ENE 03:08:22 42° ENE
Cosmos 2369 Rocket 4.4 03:09:36 10° N 03:13:59 22° NE 03:18:22 10° E
USA 215 4.1 03:14:13 10° NE 03:19:59 36° NNW 03:19:59 36° NNW
CZ-4C R/B 3.4 03:29:40 32° N 03:29:40 32° N 03:33:43 10° NNE
Cosmos 2333 Rocket 4.3 03:31:49 14° NNW 03:31:49 14° NNW 03:33:06 10° N
USA 229 DEB 3.7 03:35:49 66° W 03:36:26 69° WSW 03:43:59 10° SSE
USA 229 3.7 03:35:52 66° W 03:36:31 70° WSW 03:44:03 10° SSE
ATLAS CENTAUR R/B 2.5 03:43:09 43° NNE 03:43:09 43° NNE 03:46:13 10° NNE
Cosmos 1484 Rocket 4.5 03:38:29 10° NNE 03:42:04 32° E 03:44:58 14° SSE
ALOS 4.4 03:38:50 10° NE 03:42:46 26° E 03:46:40 10° SSE
CZ-4B R/B 4.2 03:39:22 10° NNE 03:42:15 35° ENE 03:42:15 35° ENE
NOSS 3-1 (A) 4.0 03:39:16 32° NW 03:43:24 88° WSW 03:52:08 10° SSE
H-2A R/B 3.1 03:43:09 10° NNE 03:47:29 59° ESE 03:48:34 45° SSE
MSX 4.4 03:47:26 10° N 03:51:32 40° NNW 03:51:32 40° NNW
IDEFIX/ARIANE 42P 4.5 03:49:04 10° N 03:50:26 17° NNW 03:50:26 17° NNW
Cosmos 1934 Rocket 3.9 03:47:25 10° NNW 03:53:39 65° W 03:59:54 10° S
STARLINK-1039 4.4 03:57:48 45° SSE 03:57:48 45° SSE 04:00:47 10° SE
Cosmos 1992 Rocket 3.8 03:55:39 48° NNW 03:57:09 83° WSW 04:02:22 10° SSE
Cosmos 1356 Rocket 4.0 03:58:21 45° NNE 03:58:21 45° NNE 04:01:16 10° N
Cosmos 2251 Rocket 3.4 04:01:11 65° W 04:01:27 66° WNW 04:06:44 10° NNE
Cosmos 2237 Rocket 3.6 04:03:02 23° NNW 04:03:02 23° NNW 04:06:16 10° N
STARLINK-1045 4.2 04:02:36 47° SSE 04:02:36 47° SSE 04:05:44 10° SE
COSMO-SKYMED 1 3.5 04:00:27 10° SSE 04:04:37 49° ENE 04:08:50 10° N
BREEZE M DEB (TANK) 3.8 04:06:13 34° N 04:06:25 35° N 04:11:42 10° ENE
STARLINK-1050 4.1 04:07:29 47° S 04:07:29 47° S 04:10:44 10° SE
Meteor 1-31 Rocket 3.5 04:05:48 10° N 04:08:26 42° N 04:08:26 42° N
NOSS 2-1 (C) 4.4 04:12:26 28° N 04:12:26 28° N 04:14:41 10° NNE
STARLINK-1055 4.1 04:12:14 46° S 04:12:14 46° S 04:15:37 10° SE
Cosmos 1605 Rocket 3.8 04:07:38 10° NNW 04:13:50 69° W 04:19:56 10° S
NOSS 2-1 (D) 4.4 04:16:24 28° N 04:16:24 28° N 04:18:42 10° NNE
STARLINK-1022 4.1 04:17:01 45° SSW 04:17:01 45° SSW 04:20:32 10° SSE
Cosmos 1408 Rocket 3.4 04:16:25 59° WNW 04:16:43 61° W 04:21:01 10° S
GEOS 3 Rocket 3.7 04:14:17 10° NNE 04:19:31 61° NW 04:21:26 38° WSW
Cosmos 2221 2.7 04:15:53 10° S 04:20:07 72° E 04:24:25 10° NNE
CZ-4B R/B 4.0 04:16:23 10° N 04:20:37 58° WNW 04:21:32 47° WSW
STARLINK-1042 4.1 04:21:49 42° SSW 04:21:49 42° SSW 04:25:27 10° SSE
SJ-12 4.3 04:20:07 10° NNE 04:24:14 67° ESE 04:28:21 10° S
Cosmos 1869 4.2 04:21:21 10° S 04:25:13 49° E 04:29:05 10° NNE
Cosmos 1153 Rocket 4.4 04:19:46 10° N 04:25:57 84° W 04:32:04 10° S
STARLINK-1056 4.2 04:26:35 39° SW 04:26:35 39° SW 04:30:20 10° SSE
Meteor 2-10 Rocket 4.0 04:27:19 36° W 04:27:44 37° WNW 04:32:35 10° N
SKYMED 3 4.5 04:24:20 10° SSE 04:28:40 89° E 04:33:02 10° NNW
METEOR-M 4.3 04:24:37 10° NNE 04:29:59 73° ESE 04:35:18 10° S
STARLINK-1054 4.3 04:31:22 36° SW 04:31:26 36° SW 04:35:13 10° SSE
STARLINK-1062 4.4 04:36:09 33° SW 04:36:23 33° SW 04:40:06 10° SSE
Cosmos 1943 Rocket 2.0 04:32:31 10° NNW 04:38:03 78° WSW 04:43:32 10° SSE
Cosmos 2297 4.4 04:37:32 29° W 04:38:16 30° WSW 04:43:06 10° SSW
Cosmos 1727 Rocket 3.9 04:32:12 10° SSW 04:38:22 68° W 04:44:32 10° N
STARLINK-1053 4.5 04:40:54 29° WSW 04:41:19 30° SW 04:44:57 10° SSE
ADEOS Rocket 4.0 04:36:09 10° SE 04:42:05 53° ENE 04:48:42 10° N
Lacrosse 5 1.9 04:38:34 20° NW 04:42:06 84° NE 04:47:10 10° SE
SL-16 R/B 3.0 04:41:35 27° W 04:43:12 31° NW 04:48:14 10° N
Cosmos 292 Rocket 4.4 04:43:28 26° WNW 04:45:02 33° WSW 04:49:15 10° SSW
CZ-2C R/B 3.5 04:42:55 10° N 04:47:04 25° WNW 04:47:45 24° WNW
Cosmos 2173 Rocket 4.0 04:44:04 10° N 04:50:25 88° E 04:56:38 10° S
Cosmos 407 Rocket 3.5 04:46:47 10° SSW 04:52:08 87° WNW 04:57:28 10° NNE
SKYMED 2 3.7 04:48:30 10° S 04:52:43 50° W 04:56:58 10° NNW
Cosmos 1805 Rocket 3.7 04:50:44 10° N 04:55:05 73° E 04:59:24 10° SSE
FENGYUN 3A 3.6 04:52:19 10° N 04:57:41 65° WNW 05:03:04 10° SSW
Cosmos 2369 Rocket 2.2 04:52:52 10° NNW 04:58:35 69° WSW 05:04:14 10° SSE
Cosmos 1862 4.3 04:55:08 10° N 04:58:59 48° ENE 05:02:49 10° SSE
Cosmos 1603 3.6 04:53:20 10° SSW 04:59:02 73° WNW 05:04:45 10° NNE
Cosmos 1140 Rocket 3.7 04:53:51 10° SSW 04:59:05 78° ESE 05:04:21 10° NNE
Cosmos 1238 4.1 04:56:55 10° SSW 04:59:57 57° W 05:02:57 10° N
H-2A R/B 4.4 04:58:19 10° NNE 05:01:50 36° E 05:05:17 10° SSE
Sich 1 3.5 04:58:05 10° N 05:02:21 62° E 05:06:36 10° SSE
Cosmos 2100 Rocket 3.9 04:56:24 10° NNW 05:02:36 71° W 05:08:42 10° S
Cosmos 1500 Rocket 3.9 04:58:37 10° NNW 05:02:47 41° W 05:06:55 10° SSW
Okean O Rocket 1.8 04:58:46 10° NNE 05:03:10 76° ESE 05:07:30 10° S
CZ-4B DEB 4.1 04:57:45 10° N 05:03:14 75° WNW 05:08:41 10° SSW
Cosmos 1943 3.1 05:00:36 10° SSW 05:06:13 82° WNW 05:11:53 10° NNE
Meteor 2-3 Rocket 4.3 05:01:35 10° NNW 05:06:45 36° W 05:11:57 10° SSW
Cosmos 2263 4.1 05:02:33 10° NNW 05:08:16 79° WSW 05:13:52 10° SSE
Cosmos 2061 Rocket 4.1 05:04:08 10° N 05:10:28 88° E 05:16:41 10° S
STARLINK-1098 4.4 05:08:11 10° SSW 05:12:01 49° SE 05:15:52 10° ENE
STARLINK-1070 2.7 05:10:27 12° SW 05:13:08 78° SE 05:16:04 10° ENE
Cosmos 1000 Rocket 4.4 05:07:03 10° SSW 05:13:09 67° W 05:19:21 10° N
STARLINK-1124 2.6 05:11:29 14° WSW 05:13:57 84° NW 05:16:53 10° NE
Cosmos 1190 Rocket 4.0 05:08:52 10° SSW 05:14:06 67° WNW 05:19:24 10° NNE
Cosmos 1743 Rocket 4.4 05:10:27 10° NNW 05:14:09 28° W 05:17:50 10° SSW
STARLINK-1066 2.7 05:11:32 11° SW 05:14:16 80° SE 05:17:12 10° ENE
STARLINK-1081 2.7 05:11:45 11° SW 05:14:31 80° SE 05:17:26 10° ENE
STARLINK-1069 2.7 05:12:11 11° SW 05:14:57 81° SE 05:17:53 10° ENE
CZ-4B R/B 3.2 05:09:37 10° NNE 05:14:59 89° ESE 05:20:16 10° SSW
STARLINK-1085 2.7 05:12:23 11° SW 05:15:10 82° SE 05:18:06 10° ENE
STARLINK-1086 2.7 05:12:36 11° SW 05:15:23 82° SE 05:18:19 10° ENE
STARLINK-1095 2.7 05:12:50 11° SW 05:15:37 82° SE 05:18:33 10° ENE
STARLINK-1077 2.7 05:13:03 11° SW 05:15:51 83° SE 05:18:47 10° ENE
STARLINK-1075 2.7 05:13:16 11° SW 05:16:05 83° SE 05:19:01 10° ENE
Cosmos 1484 Rocket 4.1 05:13:20 10° NNW 05:16:17 21° WNW 05:19:15 10° WSW
STARLINK-1093 2.7 05:13:29 11° SW 05:16:17 84° SSE 05:19:13 10° ENE
STARLINK-1123 4.3 05:12:36 10° SW 05:16:28 53° SE 05:20:22 10° ENE
STARLINK-1074 2.7 05:13:41 11° SW 05:16:31 84° SE 05:19:27 10° ENE
STARLINK-1087 2.7 05:13:54 11° SW 05:16:45 85° SE 05:19:41 10° NE
STARLINK-1088 2.7 05:14:08 11° SW 05:16:58 85° SE 05:19:53 10° NE
STARLINK-1115 2.7 05:14:19 10° SW 05:17:11 85° SE 05:20:06 10° NE
STARLINK-1076 2.7 05:14:33 10° SW 05:17:24 86° SSE 05:20:20 10° NE
STARLINK-1092 2.7 05:14:46 10° SW 05:17:38 86° SE 05:20:34 10° NE
CZ-4B R/B 4.3 05:15:29 10° NNW 05:17:38 15° WNW 05:18:23 14° WNW
DMSP B5D1-3 4.5 05:12:36 10° S 05:17:39 71° WSW 05:22:45 10° NNW
STARLINK-1080 2.6 05:15:00 10° SW 05:17:52 87° SSE 05:20:48 10° NE
STARLINK-1090 2.6 05:15:12 10° SW 05:18:05 87° SE 05:21:01 10° NE
STARLINK-1089 2.6 05:15:24 10° SW 05:18:18 87° SE 05:21:14 10° NE
STARLINK-1107 2.6 05:15:38 10° SW 05:18:32 88° SE 05:21:28 10° NE
CZ-4C R/B 4.2 05:15:16 10° NW 05:18:34 15° NNW 05:22:10 10° NNE
BREEZE M DEB (TANK) 4.5 05:09:47 10° WNW 05:18:43 27° WSW 05:22:16 10° S
STARLINK-1109 2.6 05:15:50 10° SW 05:18:45 88° SSE 05:21:42 10° NE
STARLINK-1091 2.6 05:16:05 10° SW 05:19:00 89° SSE 05:21:56 10° NE
STARLINK-1072 2.6 05:16:17 10° SW 05:19:13 89° SE 05:22:09 10° NE
STARLINK-1096 2.6 05:16:32 10° SW 05:19:25 90° S 05:22:21 10° NE
STARLINK-1079 2.6 05:16:44 10° SW 05:19:40 90° NE 05:22:35 10° NE
STARLINK-1116 2.6 05:16:58 10° SW 05:19:53 89° NW 05:22:50 10° NE
ALOS 2.9 05:16:00 10° N 05:20:13 34° WNW 05:24:24 10° SW
STARLINK-1094 2.6 05:17:25 10° SW 05:20:20 89° NNW 05:23:16 10° NE
STARLINK-1117 2.6 05:17:38 10° SW 05:20:33 88° NW 05:23:29 10° NE
STARLINK-1078 2.6 05:17:52 10° SW 05:20:47 88° NW 05:23:43 10° NE
STARLINK-1097 4.1 05:17:01 10° SW 05:20:56 58° SE 05:24:51 10° ENE
STARLINK-1108 2.6 05:18:05 10° SW 05:21:00 87° NNW 05:23:56 10° NE
STARLINK-1071 2.6 05:18:19 10° SW 05:21:13 87° NW 05:24:08 10° NE
ATLAS CENTAUR R/B 3.5 05:19:22 12° WNW 05:21:20 14° NW 05:23:47 10° N
STARLINK-1110 2.6 05:18:32 10° SW 05:21:28 87° NW 05:24:24 10° NE
Cosmos 1459 Rocket 4.1 05:15:54 10° NNW 05:21:53 54° W 05:27:56 10° SSW
STARLINK-1122 2.6 05:19:00 10° SW 05:21:55 86° NNW 05:24:51 10° NE
STARLINK-1126 2.6 05:19:13 10° SW 05:22:08 85° NW 05:25:04 10° NE
STARLINK-1082 2.6 05:19:27 10° SW 05:22:22 85° NW 05:25:18 10° NE
H-2A R/B 4.2 05:19:55 10° NNW 05:22:31 16° WNW 05:25:09 10° W
STARLINK-1100 2.6 05:19:41 10° WSW 05:22:35 84° NNW 05:25:31 10° NE
STARLINK-1083 2.6 05:19:53 10° WSW 05:22:48 84° NW 05:25:44 10° NE
STARLINK-1125 2.6 05:20:07 10° WSW 05:23:03 84° NNW 05:25:58 10° NE
Cosmos 2084 3.9 05:20:21 10° SSW 05:24:50 73° SE 05:29:19 10° NE
Cosmos 1656 Rocket 3.7 05:19:23 10° NNW 05:25:06 89° WSW 05:30:48 10° SSE
STARLINK-1099 4.0 05:21:28 10° SW 05:25:23 63° SE 05:29:21 10° ENE
Cosmos 614 Rocket 4.4 05:22:02 10° SW 05:26:51 39° WNW 05:31:43 10° N
Cosmos 1725 Rocket 4.0 05:21:44 10° N 05:28:01 87° W 05:34:19 10° S
STARLINK-1118 2.3 05:26:07 10° WSW 05:28:41 66° NW 05:31:17 10° NE
Cosmos 2123 Rocket 4.0 05:23:22 10° S 05:29:42 83° W 05:36:03 10° N
STARLINK-1104 3.8 05:25:55 10° SW 05:29:53 69° SE 05:33:51 10° ENE
Cosmos 1328 Rocket 4.5 05:26:46 10° S 05:31:06 56° E 05:35:27 10° NNE
Cosmos 676 Rocket 4.0 05:25:49 10° SSW 05:31:07 78° WNW 05:36:30 10° NNE
Cosmos 1151 Rocket 3.9 05:28:29 10° S 05:32:40 55° E 05:36:55 10° NNE
STARLINK-1144 3.7 05:30:26 10° SW 05:34:23 75° SE 05:38:23 10° ENE
Cosmos 1802 Rocket 4.2 05:28:58 10° NNW 05:35:12 53° W 05:41:23 10° SSW
Cosmos 1633 3.3 05:32:11 10° NNW 05:35:25 30° W 05:38:38 10° SSW
STARLINK-1103 3.6 05:34:54 10° SW 05:38:53 81° SE 05:42:54 10° ENE
Shenzhou-11 Module 2.8 05:38:13 10° SW 05:40:43 40° SSE 05:43:15 10° E
COSMO-SKYMED 1 4.1 05:38:22 10° SW 05:41:03 16° W 05:43:46 10° NW
Aureole 2 Rocket 3.4 05:39:02 10° NW 05:41:27 22° WSW 05:43:57 10° SSW
NOAA 6 4.3 05:37:59 10° N 05:42:56 45° WNW 05:47:48 10° SW
NOSS 3-3 (A) 4.5 05:37:28 10° SSW 05:43:12 64° ESE 05:49:37 10° NE
STARLINK-1101 3.6 05:39:30 10° SW 05:43:29 87° SE 05:47:29 10° NE
Cosmos 1315 Rocket 4.0 05:41:22 10° S 05:45:12 48° E 05:49:01 10° NNE
STARLINK-1128 3.5 05:42:07 10° SW 05:46:03 88° NW 05:50:01 10° NE
